User: anonymous   Login
Location: Archemont
(49.1579°N, 1.7598°E)
Time: 21:22:58
(UTC+00:00)
Language:

Spot 1 - Orbit

View from above orbital plane
View from above orbital plane
View from above satellite
View from above satellite

Ground track
Ground track

The orbit data is extracted from the following two-line orbital elements,

1 16613U 86019A   24151.57249179  .00002225  00000-0  34902-3 0  9990
2 16613  98.7040  27.4088 0138353  83.1019 278.5900 14.67547792701170
Epoch (UTC): 30 May 2024 13:44:23
Eccentricity: 0.0138353
inclination: 98.7040°
perigee height: 571 km
apogee height: 766 km
right ascension of ascending node: 27.4088°
argument of perigee: 83.1019°
revolutions per day: 14.67547792
mean anomaly at epoch: 278.5900°
orbit number at epoch: 70117

The dashed part of the orbit path shows where the satellite is in the earth's shadow,  

DLR